• In Uzbekistan
  • List of Countries
  • For 7 days
  • Water Temperature
  • Satellite Maps
  • Weather Map
  • Weather Widgets
  • user-avatar
    Login

    Hourly Weather Volubilis

    Today, 17 December, Sunday

    Time Temperature Precipitation Wind Pressure Humidity
    00:00 +9°C° 0 mm 0 mps 726 mmHg 87%
    01:00 +9°C° 0 mm 0 mps 726 mmHg 87%
    02:00 +9°C° 0 mm 0 mps 726 mmHg 88%
    03:00 +9°C° 0 mm 1 mps 726 mmHg 88%
    04:00 +9°C° 0 mm 1 mps 726 mmHg 88%
    05:00 +9°C° 0 mm 1 mps 726 mmHg 88%
    06:00 +9°C° 0 mm 1 mps 726 mmHg 88%
    07:00 +10°C° 0 mm 1 mps 727 mmHg 85%
    08:00 +10°C° 0 mm 1 mps 727 mmHg 82%
    09:00 +11°C° 0 mm 1 mps 727 mmHg 80%
    10:00 +13°C° 0 mm 2 mps 727 mmHg 73%
    11:00 +14°C° 0 mm 2 mps 728 mmHg 67%
    12:00 +14°C° 0 mm 3 mps 728 mmHg 61%
    13:00 +16°C° 0 mm 3 mps 728 mmHg 59%
    14:00 +16°C° 0 mm 3 mps 728 mmHg 56%
    15:00 +15°C° 0 mm 4 mps 727 mmHg 54%
    16:00 +14°C° 0 mm 3 mps 728 mmHg 58%
    17:00 +13°C° 0 mm 3 mps 728 mmHg 62%
    18:00 +12°C° 0 mm 2 mps 728 mmHg 65%
    19:00 +12°C° 0 mm 2 mps 729 mmHg 66%
    20:00 +10°C° 0 mm 2 mps 729 mmHg 67%
    21:00 +10°C° 0 mm 2 mps 730 mmHg 68%
    22:00 +9°C° 0 mm 2 mps 730 mmHg 68%
    23:00 +9°C° 0 mm 2 mps 730 mmHg 68%

    Tomorrow, 18 December, Monday

    Time Temperature Precipitation Wind Pressure Humidity
    00:00 +8°C° 0 mm 2 mps 730 mmHg 68%
    01:00 +8°C° 0 mm 2 mps 730 mmHg 69%
    02:00 +8°C° 0 mm 2 mps 729 mmHg 69%
    03:00 +8°C° 0 mm 2 mps 729 mmHg 69%
    04:00 +7°C° 0 mm 2 mps 729 mmHg 69%
    05:00 +7°C° 0 mm 2 mps 729 mmHg 69%
    06:00 +7°C° 0 mm 2 mps 729 mmHg 69%
    07:00 +8°C° 0 mm 2 mps 730 mmHg 66%
    08:00 +8°C° 0 mm 2 mps 730 mmHg 63%
    09:00 +9°C° 0 mm 2 mps 730 mmHg 60%
    10:00 +12°C° 0 mm 2 mps 730 mmHg 55%
    11:00 +13°C° 0 mm 2 mps 730 mmHg 50%
    12:00 +15°C° 0 mm 2 mps 730 mmHg 45%
    13:00 +14°C° 0 mm 3 mps 730 mmHg 44%
    14:00 +16°C° 0 mm 3 mps 729 mmHg 43%
    15:00 +16°C° 0 mm 3 mps 729 mmHg 42%
    16:00 +14°C° 0 mm 2 mps 729 mmHg 46%
    17:00 +13°C° 0 mm 2 mps 729 mmHg 51%
    18:00 +11°C° 0 mm 1 mps 729 mmHg 55%
    19:00 +11°C° 0 mm 1 mps 729 mmHg 56%
    20:00 +10°C° 0 mm 1 mps 730 mmHg 57%
    21:00 +10°C° 0 mm 1 mps 730 mmHg 58%
    22:00 +10°C° 0 mm 1 mps 730 mmHg 58%
    23:00 +9°C° 0 mm 1 mps 729 mmHg 59%

    Day after tomorrow, 19 December, Tuesday

    Time Temperature Precipitation Wind Pressure Humidity
    00:00 +9°C° 0 mm 1 mps 729 mmHg 59%
    01:00 +9°C° 0 mm 1 mps 729 mmHg 59%
    02:00 +8°C° 0 mm 1 mps 729 mmHg 59%
    03:00 +8°C° 0 mm 1 mps 729 mmHg 60%
    04:00 +8°C° 0 mm 1 mps 729 mmHg 60%
    05:00 +8°C° 0 mm 1 mps 728 mmHg 60%
    06:00 +7°C° 0 mm 1 mps 728 mmHg 60%
    07:00 +9°C° 0 mm 1 mps 729 mmHg 58%
    08:00 +10°C° 0 mm 1 mps 729 mmHg 55%
    09:00 +11°C° 0 mm 1 mps 730 mmHg 53%
    10:00 +12°C° 0 mm 1 mps 730 mmHg 48%
    11:00 +14°C° 0 mm 1 mps 730 mmHg 43%
    12:00 +15°C° 0 mm 1 mps 730 mmHg 39%
    13:00 +16°C° 0 mm 1 mps 729 mmHg 38%
    14:00 +16°C° 0 mm 1 mps 729 mmHg 37%
    15:00 +16°C° 0 mm 2 mps 729 mmHg 36%
    16:00 +15°C° 0 mm 1 mps 729 mmHg 42%
    17:00 +13°C° 0 mm 1 mps 729 mmHg 48%
    18:00 +11°C° 0 mm 1 mps 729 mmHg 53%
    19:00 +11°C° 0 mm 1 mps 729 mmHg 54%
    20:00 +11°C° 0 mm 1 mps 730 mmHg 54%
    21:00 +10°C° 0 mm 1 mps 730 mmHg 55%
    22:00 +10°C° 0 mm 1 mps 730 mmHg 54%
    23:00 +10°C° 0 mm 1 mps 730 mmHg 53%

    20 December, Wednesday

    Time Temperature Precipitation Wind Pressure Humidity
    00:00 +10°C° 0 mm 1 mps 730 mmHg 53%
    01:00 +8°C° 0 mm 2 mps 730 mmHg 53%
    02:00 +8°C° 0 mm 2 mps 730 mmHg 53%
    03:00 +8°C° 0 mm 2 mps 730 mmHg 53%
    04:00 +8°C° 0 mm 2 mps 730 mmHg 55%
    05:00 +8°C° 0 mm 2 mps 730 mmHg 57%
    06:00 +8°C° 0 mm 3 mps 730 mmHg 60%
    07:00 +8°C° 0 mm 3 mps 730 mmHg 59%
    08:00 +9°C° 0 mm 3 mps 731 mmHg 59%
    09:00 +10°C° 0 mm 3 mps 731 mmHg 59%
    10:00 +12°C° 0 mm 3 mps 731 mmHg 53%
    11:00 +13°C° 0 mm 4 mps 731 mmHg 48%
    12:00 +15°C° 0 mm 4 mps 731 mmHg 42%
    13:00 +17°C° 0 mm 4 mps 731 mmHg 42%
    14:00 +17°C° 0 mm 4 mps 731 mmHg 41%
    15:00 +17°C° 0 mm 3 mps 730 mmHg 40%
    16:00 +16°C° 0 mm 3 mps 730 mmHg 46%
    17:00 +14°C° 0 mm 2 mps 730 mmHg 51%
    18:00 +12°C° 0 mm 1 mps 731 mmHg 56%
    19:00 +12°C° 0 mm 1 mps 731 mmHg 57%
    20:00 +11°C° 0 mm 1 mps 731 mmHg 58%
    21:00 +11°C° 0 mm 1 mps 732 mmHg 59%
    22:00 +11°C° 0 mm 1 mps 732 mmHg 59%
    23:00 +10°C° 0 mm 1 mps 731 mmHg 60%

    21 December, Thursday

    Time Temperature Precipitation Wind Pressure Humidity
    00:00 +10°C° 0 mm 1 mps 731 mmHg 60%
    01:00 +10°C° 0 mm 1 mps 731 mmHg 60%
    02:00 +9°C° 0 mm 1 mps 731 mmHg 60%
    03:00 +9°C° 0 mm 1 mps 731 mmHg 60%
    04:00 +9°C° 0 mm 1 mps 731 mmHg 60%
    05:00 +9°C° 0 mm 1 mps 731 mmHg 60%
    06:00 +9°C° 0 mm 1 mps 732 mmHg 60%
    07:00 +10°C° 0 mm 1 mps 732 mmHg 58%
    08:00 +11°C° 0 mm 1 mps 733 mmHg 57%
    09:00 +12°C° 0 mm 1 mps 734 mmHg 55%
    10:00 +13°C° 0 mm 1 mps 734 mmHg 50%
    11:00 +15°C° 0 mm 2 mps 734 mmHg 44%
    12:00 +17°C° 0 mm 2 mps 734 mmHg 39%
    13:00 +17°C° 0 mm 2 mps 734 mmHg 39%
    14:00 +18°C° 0 mm 2 mps 734 mmHg 38%
    15:00 +18°C° 0 mm 2 mps 734 mmHg 38%
    16:00 +17°C° 0 mm 2 mps 734 mmHg 43%
    17:00 +15°C° 0 mm 2 mps 734 mmHg 48%
    18:00 +13°C° 0 mm 1 mps 734 mmHg 53%
    19:00 +13°C° 0 mm 1 mps 734 mmHg 54%
    20:00 +12°C° 0 mm 1 mps 734 mmHg 55%
    21:00 +12°C° 0 mm 1 mps 735 mmHg 57%
    22:00 +11°C° 0 mm 1 mps 735 mmHg 57%
    23:00 +11°C° 0 mm 1 mps 734 mmHg 57%

    22 December, Friday

    Time Temperature Precipitation Wind Pressure Humidity
    00:00 +11°C° 0 mm 1 mps 734 mmHg 58%
    01:00 +10°C° 0 mm 1 mps 734 mmHg 58%
    02:00 +10°C° 0 mm 1 mps 734 mmHg 58%
    03:00 +10°C° 0 mm 1 mps 734 mmHg 58%
    04:00 +10°C° 0 mm 1 mps 734 mmHg 58%
    05:00 +9°C° 0 mm 1 mps 733 mmHg 57%
    06:00 +9°C° 0 mm 1 mps 733 mmHg 57%
    07:00 +10°C° 0 mm 1 mps 734 mmHg 56%
    08:00 +11°C° 0 mm 1 mps 734 mmHg 54%
    09:00 +12°C° 0 mm 1 mps 734 mmHg 52%
    10:00 +14°C° 0 mm 1 mps 734 mmHg 48%
    11:00 +15°C° 0 mm 1 mps 734 mmHg 44%
    12:00 +18°C° 0 mm 1 mps 734 mmHg 39%
    13:00 +18°C° 0 mm 1 mps 734 mmHg 39%
    14:00 +19°C° 0 mm 1 mps 733 mmHg 39%
    15:00 +19°C° 0 mm 1 mps 733 mmHg 38%
    16:00 +16°C° 0 mm 1 mps 733 mmHg 45%
    17:00 +14°C° 0 mm 1 mps 733 mmHg 52%
    18:00 +13°C° 0 mm 1 mps 733 mmHg 58%
    19:00 +12°C° 0 mm 1 mps 733 mmHg 61%
    20:00 +10°C° 0 mm 0 mps 733 mmHg 63%
    21:00 +10°C° 0 mm 0 mps 733 mmHg 65%
    22:00 +10°C° 0 mm 0 mps 733 mmHg 66%
    23:00 +9°C° 0 mm 0 mps 732 mmHg 66%
    Show more